Location: Kellogg
(38.0159°N, 90.0546°W)
Time: 23:11:04
(UTC+00:00)

deb Explorer IX - All Passes

Search period start: 11 September 2024 00:00
Search period end: 21 September 2024 00:00
Orbit: 505 x 849 km, 38.7° (Epoch: 11 September)

Date Brightness Start Highest point End Pass type
(mag) Time Alt. Az. Time Alt. Az. Time Alt. Az.
11 Sep - 01:40:23 10° S 01:44:17 18° SE 01:48:06 10° ESE visible
11 Sep - 03:21:55 10° SW 03:27:37 53° SSE 03:32:58 10° E visible
11 Sep - 05:05:41 10° W 05:11:26 86° N 05:16:40 10° E night (unlit)
11 Sep - 06:49:55 10° W 06:55:23 87° S 07:00:16 10° ESE night (unlit)
11 Sep - 08:34:12 10° W 08:38:52 37° SSW 08:43:03 10° SE night (unlit)
12 Sep - 02:14:21 10° SW 02:19:42 36° SSE 02:24:53 10° E visible
12 Sep - 03:57:30 10° WSW 04:03:22 81° SSE 04:08:50 10° E visible
12 Sep - 05:41:40 10° W 05:47:21 83° N 05:52:30 10° E night (unlit)
12 Sep - 07:25:52 10° W 07:31:07 59° SSW 07:35:50 10° ESE night (unlit)
12 Sep - 09:10:55 10° WSW 09:14:08 17° SW 09:17:10 10° S night (unlit)
13 Sep - 01:07:20 10° SSW 01:11:51 23° SE 01:16:21 10° E visible
13 Sep - 02:49:26 10° WSW 02:55:16 62° SSE 03:00:51 10° E visible
13 Sep - 04:33:21 10° W 04:39:11 83° N 04:44:35 10° E visible
13 Sep - 06:17:33 10° W 06:23:09 80° SSW 06:28:12 10° ESE night (unlit)
13 Sep - 08:01:56 10° W 08:06:32 31° SSW 08:10:44 10° SSE night (unlit)
14 Sep - 00:01:27 10° SSE 00:04:04 13° SE 00:06:43 10° ESE daylight
14 Sep - 01:41:37 10° SW 01:47:11 44° SSE 01:52:40 10° E visible
14 Sep - 03:25:01 10° WSW 03:30:56 88° S 03:36:34 10° E visible
14 Sep - 05:09:11 10° W 05:14:58 86° N 05:20:17 10° E night (unlit)
14 Sep - 06:53:22 10° W 06:58:41 51° SSW 07:03:30 10° SE night (unlit)
14 Sep - 08:38:57 10° WSW 08:41:36 14° SW 08:44:09 10° S night (unlit)
15 Sep - 00:34:13 10° SSW 00:39:09 28° SSE 00:44:05 10° E visible
15 Sep - 02:16:46 10° WSW 02:22:39 71° SSE 02:28:24 10° E visible
15 Sep - 04:00:44 10° W 04:06:38 82° N 04:12:12 10° E visible
15 Sep - 05:44:53 10° W 05:50:36 73° SSW 05:55:48 10° ESE night (unlit)
15 Sep - 07:29:26 10° W 07:33:54 26° SSW 07:38:01 10° SSE night (unlit)
15 Sep - 23:27:38 10° S 23:31:12 17° SE 23:34:49 10° ESE daylight
16 Sep - 01:08:43 10° SW 01:14:23 51° SSE 01:20:03 10° E visible
16 Sep - 02:52:16 10° W 02:58:13 88° N 03:03:58 10° E visible
16 Sep - 04:36:23 10° W 04:42:16 89° SSW 04:47:46 10° E visible
16 Sep - 06:20:36 10° W 06:25:56 43° SSW 06:30:49 10° SE night (unlit)
16 Sep - 08:07:06 10° WSW 08:08:45 11° SW 08:10:22 10° SSW night (unlit)
17 Sep - 00:01:02 10° SSW 00:06:10 34° SSE 00:11:26 10° E daylight
17 Sep - 01:43:52 10° WSW 01:49:45 79° SSE 01:55:37 10° E visible
17 Sep - 03:27:51 10° W 03:33:48 83° N 03:39:28 10° E visible
17 Sep - 05:11:58 10° W 05:17:43 65° SSW 05:23:03 10° ESE night (unlit)
17 Sep - 06:56:43 10° W 07:00:55 22° SW 07:04:52 10° SSE night (unlit)
17 Sep - 22:53:58 10° S 22:58:03 21° SE 23:02:17 10° E daylight
18 Sep - 00:35:37 10° WSW 00:41:18 59° SSE 00:47:07 10° E visible
18 Sep - 02:19:17 10° W 02:25:13 85° N 02:31:04 10° E visible
18 Sep - 04:03:21 10° W 04:09:16 84° SSW 04:14:53 10° ESE visible
18 Sep - 05:47:35 10° W 05:52:51 37° SSW 05:57:44 10° SE night (unlit)
18 Sep - 21:48:47 10° SSE 21:50:03 11° SE 21:51:19 10° SE daylight
18 Sep - 23:27:41 10° SW 23:32:55 40° SSE 23:38:24 10° E daylight
19 Sep - 01:10:44 10° WSW 01:16:35 85° SSE 01:22:30 10° E visible
19 Sep - 02:54:43 10° W 03:00:40 85° N 03:06:27 10° E visible
19 Sep - 04:38:46 10° W 04:44:31 57° SSW 04:49:56 10° SE visible
19 Sep - 06:23:50 10° W 06:27:38 19° SW 06:31:16 10° S night (unlit)
19 Sep - 22:20:16 10° SSW 22:24:39 25° SE 22:29:16 10° E daylight
20 Sep - 00:02:20 10° WSW 00:07:58 67° SSE 00:13:51 10° E daylight
20 Sep - 01:46:03 10° W 01:51:56 83° N 01:57:50 10° E visible
20 Sep - 03:30:02 10° W 03:35:57 77° SSW 03:41:40 10° ESE visible
20 Sep - 05:14:21 10° W 05:19:27 32° SSW 05:24:17 10° SSE night (unlit)
20 Sep - 21:13:55 10° SSE 21:16:30 14° SE 21:19:08 10° ESE daylight
20 Sep - 22:54:11 10° SW 22:59:26 47° SSE 23:05:00 10° E daylight
